sat.trackr.live / text

‹ back to catalog

STARLINK-6101

NORAD 56115 · 2023-046Y

PAYLOAD ACTIVE UNKNOWN

§ Identity

Operator
Country
US
Launch date
2023-03-29
Launch site
AFETR
Launch vehicle
Mass (kg)
RCS (m²)

Purposes: comms

External: N2YO · Heavens-Above · Gunter

§ Orbital elements

Epoch: 2026-09-20T01:09:03.233376Z

Period
94.27 min
Inclination
43.0038°
Eccentricity
0.0001359
Mean motion
15.27574752 rev/d
Perigee alt
482.1 km
Apogee alt
484.0 km
Semi-major
6,861.2 km
B*
1.4892e-7
RAAN
140.7200°
Arg perigee
266.8546°
Mean anomaly
93.2150°
Rev number
19,179

§ Raw data

STARLINK-61011 56115U 23046Y   26263.04795409 -.00000258  00000+0  14892-6 0  99952 56115  43.0038 140.7200 0001359 266.8546  93.2150 15.27574752191799

JSON: /api/v1/satellites/56115 · /tle

For live sub-satellite position, see the globe view (requires WebGL).

§ Visibility from observer

Set your observer location to see the next 7 days of passes ≥ 10°. The values pass through the URL so the page stays shareable.

No JS? Fill the form by hand. The geolocation button needs JavaScript.